Flag for U.S.A. Weather past 2 weeks in Dickinson, North Dakota, U.S.A.

Now
62 °F

Light rain. Fog.


Feels Like: 62 °F
Forecast: 57 / 66 °F
Wind: 3 mph from Northeast

Location: Dickinson Municipal Airport

Current Time: Aug 22, 2014 at 12:52:44 AM

Latest Report: Aug 21, 2014 at 11:56 PM


Visibility: 5 mi

Pressure: 29.98 "Hg

Humidity: 93%

Dew point: 60 °F

Location of DickinsonLocation

Historic Weather in Dickinson — Graph

°F

Dickinson temperature yesterday

Maximum temperature yesterday: 79 °F (at 1:56 PM)
Minimum temperature yesterday: 55 °F (at 3:56 AM)
Average temperature yesterday: 66 °F

Past Weeks' High & Low Weather Summary

 TemperatureHumidityPressure
High89 °F (Aug 14, 2:56 PM)100% (Aug 9, 5:56 AM)30.26 "Hg (Aug 9, 5:56 AM)
Low51 °F (Aug 10, 5:56 AM)33% (Aug 12, 2:56 PM)29.60 "Hg (Aug 20, 4:56 AM)
Average69 °F74%29.92 "Hg
* Reported Aug 6 10:56 PM — Aug 21 10:56 PM, Dickinson, Weather by CustomWeather, © 2014

Note: Actual official high and low records may vary slightly from our data, if they occured in-between our weather recording intervals... More about our weather records

Advertising

Dickinson weather history for previous 24 hours

 ConditionsComfort  
Time TempWeatherWind HumidityBarometerVisibility
10:56 PM
Aug 21
63 °FHeavy rain. Fog.13 mph90%29.96 "Hg4 mi
9:56 PM65 °FLight rain. Overcast.6 mph85%29.98 "Hg10 mi
8:56 PM65 °FPassing clouds.5 mph85%29.96 "Hg10 mi
7:56 PM67 °FOvercast.7 mph76%29.94 "Hg10 mi
6:56 PM69 °FPassing clouds.9 mph73%29.93 "Hg10 mi
5:56 PM71 °FScattered clouds.12 mph68%29.93 "Hg10 mi
4:56 PM76 °FScattered clouds.12 mph58%29.91 "Hg10 mi
3:56 PM78 °FPassing clouds.7 mph52%29.90 "Hg10 mi
2:56 PM79 °FScattered clouds.9 mph50%29.89 "Hg10 mi
1:56 PM79 °FScattered clouds.9 mph54%29.89 "Hg10 mi
12:56 PM77 °FSunny.9 mph58%29.88 "Hg10 mi
11:56 AM74 °FSunny.6 mph62%29.88 "Hg10 mi
10:56 AM73 °FSunny.10 mph64%29.89 "Hg10 mi
9:56 AM69 °FScattered clouds.10 mph81%29.88 "Hg8 mi
9:03 AM66 °FFog.9 mph87%29.90 "Hg5 mi
8:56 AM66 °FFog.12 mph87%29.86 "Hg6 mi
7:56 AM62 °FSunny.8 mph93%29.86 "Hg9 mi
6:56 AM57 °FSunny.7 mph93%29.85 "Hg8 mi
5:56 AM56 °FClear.6 mph93%29.83 "Hg10 mi
4:56 AM55 °FClear.6 mph93%29.80 "Hg9 mi
3:56 AM55 °FClear.7 mph96%29.80 "Hg8 mi
2:56 AM57 °FClear.6 mph93%29.78 "Hg9 mi
1:56 AM57 °FClear.5 mph96%29.76 "Hg7 mi
12:56 AM59 °FClear.8 mph93%29.77 "Hg9 mi
Weather by CustomWeather, © 2014

See weather overviewHow to use our weather pages